This is the latest recevied weather packets stored in our database for station/object KB1WCR. If no packets are shown the sender has not sent any weather packets the latest 10 day(s).
| Time | Temp. | Humidity | Pressure | Rain* | Wind** | Luminosity | Snow |
|---|---|---|---|---|---|---|---|
| 1777813586 | 5.56° C | 96% | 1006.4 hPa | 0 mm | - | 96 W/m² | - |
| 1777813284 | 6.11° C | 96% | 1006.2 hPa | 0 mm | - | 91 W/m² | - |
| 1777812981 | 5.56° C | 96% | 1006.2 hPa | 0 mm | - | 88 W/m² | - |
| 1777812679 | 5.56° C | 96% | 1006.3 hPa | 0 mm | - | 71 W/m² | - |
| 1777812375 | 5.56° C | 97% | 1006.2 hPa | 0 mm | - | 81 W/m² | - |
| 1777812074 | 6.11° C | 97% | 1006.2 hPa | 0 mm | - | 87 W/m² | - |
| 1777811771 | 6.11° C | 97% | 1006.3 hPa | 0 mm | - | 96 W/m² | - |
| 1777811468 | 6.11° C | 97% | 1006.3 hPa | 0 mm | - | 90 W/m² | - |
| 1777811164 | 6.11° C | 97% | 1006.2 hPa | 0 mm | - | 109 W/m² | - |
| 1777810862 | 5.56° C | 98% | 1006.4 hPa | 0 mm | - | 112 W/m² | - |
| 1777810558 | 5.56° C | 98% | 1006.4 hPa | 0 mm | - | 101 W/m² | - |
| 1777810255 | 5.56° C | 98% | 1006.4 hPa | 0 mm | - | 100 W/m² | - |
| 1777809950 | 5.56° C | 99% | 1006.5 hPa | 0 mm | - | 93 W/m² | - |
| 1777809649 | 5.56° C | 99% | 1006.5 hPa | 0 mm | - | 64 W/m² | - |
| 1777809346 | 5.56° C | 99% | 1006.6 hPa | 0 mm | - | 55 W/m² | - |
| 1777809044 | 5.56° C | 99% | 1006.4 hPa | 0 mm | - | 55 W/m² | - |
| 1777808741 | 5.56° C | 99% | 1006.5 hPa | 0 mm | - | 41 W/m² | - |
| 1777808438 | 5.56° C | 99% | 1006.8 hPa | 0 mm | - | 34 W/m² | - |
| 1777808135 | 5.56° C | 99% | 1006.9 hPa | 0 mm | - | 41 W/m² | - |
| 1777807833 | 5.56° C | 99% | 1007 hPa | 0 mm | - | 40 W/m² | - |
| 1777807531 | 5.56° C | 99% | 1006.8 hPa | 0 mm | - | 37 W/m² | - |
| 1777807227 | 5.56° C | 99% | 1006.8 hPa | 0 mm | - | 34 W/m² | - |
| 1777806918 | 5.56° C | 99% | 1006.9 hPa | 0 mm | - | 34 W/m² | - |
| 1777806615 | 5.56° C | 99% | 1006.8 hPa | 0 mm | - | 27 W/m² | - |
| 1777806311 | 5.56° C | 99% | 1006.9 hPa | 0 mm | - | 20 W/m² | - |
* Rain latest hour (hover to see other rain measurements)
** Current wind speed in m/s (hover to see current wind gust speed)